This is the latest recevied weather packets stored in our database for station/object WE8M. If no packets are shown the sender has not sent any weather packets the latest 1 day(s).
| Time | Temp. | Humidity | Pressure | Rain* | Wind** | Luminosity | Snow |
|---|---|---|---|---|---|---|---|
| 1778046709 | 14.44° C | 95% | 1006.7 hPa | 3.05 mm | - | - | - |
| 1778046406 | 14.44° C | 95% | 1006.8 hPa | 4.32 mm | - | - | - |
| 1778046102 | 14.44° C | 95% | 1006.8 hPa | 3.05 mm | - | - | - |
| 1778045498 | 14.44° C | 95% | 1006.5 hPa | 1.78 mm | - | - | - |
| 1778045196 | 14.44° C | 95% | 1007 hPa | 0 mm | - | - | - |
| 1778044894 | 14.44° C | 95% | 1006.8 hPa | 0 mm | - | - | - |
| 1778044591 | 14.44° C | 95% | 1006.9 hPa | 0 mm | - | - | - |
| 1778044286 | 14.44° C | 95% | 1007.1 hPa | 1.27 mm | - | - | - |
| 1778043985 | 14.44° C | 95% | 1007.1 hPa | 4.32 mm | - | - | - |
| 1778043682 | 14.44° C | 95% | 1007.1 hPa | 7.87 mm | - | - | - |
| 1778043379 | 14.44° C | 96% | 1006.8 hPa | 4.83 mm | - | - | - |
| 1778043075 | 14.44° C | 96% | 1007.1 hPa | 0 mm | - | - | - |
| 1778042773 | 14.44° C | 96% | 1007.3 hPa | 0 mm | - | - | - |
| 1778042167 | 14.44° C | 96% | 1007.2 hPa | 0 mm | - | - | - |
| 1778041865 | 14.44° C | 96% | 1007.1 hPa | 0 mm | - | - | - |
| 1778041564 | 14.44° C | 96% | 1006.8 hPa | 0 mm | - | - | - |
| 1778040960 | 14.44° C | 96% | 1007 hPa | 6.1 mm | - | - | - |
| 1778040656 | 14.44° C | 96% | 1007 hPa | 7.11 mm | - | - | - |
| 1778040354 | 14.44° C | 96% | 1007.2 hPa | 3.05 mm | - | - | - |
| 1778040050 | 14.44° C | 96% | 1007.4 hPa | 0 mm | - | - | - |
| 1778039747 | 14.44° C | 95% | 1007.5 hPa | 0 mm | - | - | - |
| 1778039444 | 14.44° C | 95% | 1007.4 hPa | 0 mm | - | - | - |
| 1778039141 | 13.89° C | 95% | 1007.4 hPa | 0 mm | - | - | - |
| 1778038838 | 13.89° C | 95% | 1007.4 hPa | 0 mm | - | - | - |
| 1778038535 | 14.44° C | 95% | 1007.6 hPa | 0 mm | - | - | - |
* Rain latest hour (hover to see other rain measurements)
** Current wind speed in m/s (hover to see current wind gust speed)